Location: Nians�bougou
(13.2321°N, 4.9818°W)
Time: 13:53:31
(UTC+00:00)

STARLINK-1011 - Pass Details

Date: 18 February 2020
Orbit: 549 x 550 km, 53.0° (Epoch: 05 April)

Event Time Altitude Azimuth Distance (km) Brightness Sun altitude
Exits shadow 05:34:52 30° 308° (NW) 993 4.4 -16.8°
Maximum altitude 05:36:45 65° 236° (SW) 605 3.6 -16.4°
Drops below altitude 10° 05:40:50 10° 154° (SSE) 1,815 6.7 -15.4°
Sets 05:43:04 0° 151° (SSE) 2,708 7.7 -14.9°
